Regional Weather Roundup
Issued by NWS

Home | Current Version | Previous Version | Graphics & Text | Print | Product List | Glossary On
Versions: 1 2 3 4 5 6 7 8 9 10 11 12 13 14 15 16 17 18 19 20 21 22 23 24 25 26 27 28 29 30 31 32 33 34 35 36 37 38 39 40 41 42 43 44 45 46 47 48 49 50
000
ASUS43 KLMK 051310
RWRKY
KENTUCKY REGIONAL WEATHER ROUNDUP
NATIONAL WEATHER SERVICE LOUISVILLE KY
800 AM EST THU MAR 05 2015

NOTE "FAIR" INDICATES FEW OR NO CLOUDS BELOW 12,000 FEET
WITH NO SIGNIFICANT WEATHER AND/OR OBSTRUCTIONS TO VISIBILITY.

KYZ001>023-026-027-061>063-070>075-051400-
WESTERN AND SOUTH CENTRAL KENTUCKY

CITY           SKY/WX    TMP DP  RH WIND       PRES   REMARKS
PADUCAH        CLOUDY    20   7  57 N18       30.40S WCI   5
HENDERSON      CLOUDY    19   7  58 N7        30.42R WCI  10
OWENSBORO      CLOUDY    19  10  68 N7        30.39R WCI  10
HOPKINSVILLE   LGT SNOW  18  14  86 N8        30.34R FOG     WCI   7
BOWLING GREEN  SNOW      20  16  84 N9        30.30S VSB 1/2 WCI   9
GLASGOW        SNOW      20  19  96 N10       30.28R VSB 1/2 WCI   9
$$

KYZ024-025-028>034-038-045-046-053-051400-
NORTH CENTRAL KENTUCKY

CITY           SKY/WX    TMP DP  RH WIND       PRES   REMARKS
LOUISVILLE/SDF LGT SNOW  20  16  84 N5        30.35R VSB 3/4 WCI  13
LOUISVILLE/LOU LGT SNOW  19  15  84 N5        30.34R FOG     WCI  12
FORT KNOX      LGT SNOW  18  14  85 N10       30.31R FOG     WCI   6
$$

KYZ035>037-039>044-047>052-055>060-089>105-051400-
NORTHEAST KENTUCKY

CITY           SKY/WX    TMP DP  RH WIND       PRES   REMARKS
LEXINGTON      FOG       16  13  88 N13       30.27R VSB 1/2 WCI   2
COVINGTON      CLOUDY    19   9  65 N9        30.28S WCI   8
FRANKFORT      LGT SNOW  18  13  80 N7        30.29R VSB 3/4 WCI   9
$$

KYZ054-064>069-076>088-106>120-051400-
SOUTHEAST KENTUCKY

CITY           SKY/WX    TMP DP  RH WIND       PRES   REMARKS
JACKSON        SNOW      20  18  92 NE8       30.17R VSB 1/4 WCI  10
LONDON         HVY SNOW  24  19  81 N17       30.16R VSB 1/4 WCI  11
SOMERSET       LGT SNOW  21  21 100 N9G17     30.25R VSB 1   WCI  11
MIDDLESBORO    FLURRIES  32  29  89 N8        30.09F WCI  24
MONTICELLO     HVY SNOW  22  21  96 N12       30.25R VSB<1/4 WCI  11
$$



USA.gov is the U.S. government's official web portal to all federal, state and local government web resources and services.